sat.trackr.live / text

‹ back to catalog

STARLINK-11502 [DTC]

NORAD 62474 · 2024-254N

PAYLOAD ACTIVE UNKNOWN

§ Identity

Operator
Country
US
Launch date
2024-12-31
Launch site
AFETR
Launch vehicle
Mass (kg)
RCS (m²)

Purposes: comms

External: N2YO · Heavens-Above · Gunter

§ Orbital elements

Epoch: 2026-05-24T22:29:28.595328Z

Period
91.66 min
Inclination
42.9995°
Eccentricity
0.0001163
Mean motion
15.70958313 rev/d
Perigee alt
355.4 km
Apogee alt
356.9 km
Semi-major
6,734.3 km
B*
1.8087e-3
RAAN
123.3244°
Arg perigee
212.3277°
Mean anomaly
147.7520°
Rev number
8,139

§ Raw data

STARLINK-11502 [DTC]1 62474U 24254N   26144.93713652  .00239636  00000+0  18087-2 0  99972 62474  42.9995 123.3244 0001163 212.3277 147.7520 15.70958313 81396

JSON: /api/v1/satellites/62474 · /tle

For live sub-satellite position, see the globe view (requires WebGL).

§ Visibility from observer

Set your observer location to see the next 7 days of passes ≥ 10°. The values pass through the URL so the page stays shareable.

No JS? Fill the form by hand. The geolocation button needs JavaScript.